Tracking 29892 objects as of 21-Nov-2024
HD Live streaming from Space Station
objects crossing your sky now

STARLINK-11184

Track STARLINK-11184 now!
10-day predictions
STARLINK-11184 is classified as:


NORAD ID: 60071
Int'l Code: 2024-113N
Perigee: 366.0 km
Apogee: 367.6 km
Inclination: 53.2 °
Period: 91.7 minutes
Semi major axis: 6737 km
RCS: Unknown
Launch date: June 19, 2024
Source: United States (US)
Launch site: AIR FORCE WESTERN TEST RANGE (AFWTR)
Your satellite tracking list
Your tracking list is empty




NASA's NSSDC Master Catalog

Two Line Element Set (TLE):
1 60071U 24113N   24324.42990886 -.00000466  00000-0  10131-5 0  9994
2 60071  53.1585  14.2985 0001168  95.6045 264.5106 15.69729245 24917
Source of the keplerian elements: AFSPC